TOURFACTS.DK  
Stats and Facts from Tour de France.

Tour de France 2019 starts in 348 days
  Riders   Stages   Teams   Summits   Yearly  


 
Search by year

After 2018 - Stage 14:
 15000 starters.
  5163 different riders.
  639 teams.
  2246 stages.
  456 restdays.
  441957.60 km.
  5678 abandonnees.


Top 3
GC
Christopher Froome86:20:55
Rigoberto Urán86:21:49
Romain Bardet86:23:15
Climb
Warren Barguil169 pt.
Primoz Roglic80 pt.
Thomas De Gendt64 pt.
Sprint
Michael Matthews359 pt.
André Greipel234 pt.
Edvald Boasson Hagen220 pt.
Youth
Simon Yates86:27:09
Louis Meintjes86:29:15
Emanuel Buchmann86:54:16
Facts from Tour de France 1974
  |   Stages.  |   Stage winners.  |   Days in yellow  |   Average speed.  |   Route.  |   Teams.  |   All riders.  |   Rookies.  |  

  |   Withdrawls.  |   GC.  |   Polka  |   Green  |   White  |   Summits. (In tour)  |   Miscellaneous.  |  

Stage 10 on July 7th. 1974
         Owning:    Eddy Merckx    
Pick a stage:  Pro 1 2 3 4 5 6a 6b 7 8a 8b 9 10 11 12 13 14 15 16 17 18 19a 19b 20 21a 21b 22
From: Gaillard    To: Aix-les-BainsDist:131.50 km.
Cat: 4Côte de SeysselESPDomingo Perurena
5 points
 
Cat: 2Mont du ChatESPGonzalo Aja
12 points
 

Average speed for all riders in stage:  33,624 km./hr.
    Place:Name:Team:Time:Km/h:
BELEddy MerckxITAMolteni03:46:44  +  00:00:00=34,799 
ESPMariano MartinezFRASonolor-Gitanes03:46:44  +  00:00:00=34,799 
FRARaymond PoulidorFRAGan-Mercier-Hutchinson03:46:44  +  00:00:00=34,799 
4 ESPGonzalo AjaESPKas-Kaskol03:46:44  +  00:00:00=34,799 
5 ITAFausto BertoglioITABrooklyn03:47:46  +  00:01:02=34,641 
6 ITAWladimiro PanizzaITABrooklyn03:47:46  +  00:01:02=34,641 
7 PORJoaquim AgostinhoFRABic03:47:46  +  00:01:02=34,641 
8 ESPVicente LopezESPKas-Kaskol03:47:46  +  00:01:02=34,641 
9 BELMichel PollentierBELCarpenter Confortluxe-Flandria03:47:46  +  00:01:02=34,641 
10 FRAMichel PerinFRAGan-Mercier-Hutchinson03:48:40  +  00:01:56=34,504 
11 FRAAlain SantyFRAGan-Mercier-Hutchinson03:48:40  +  00:01:56=34,504 
12 ESPAndrês OlivaESPLa Casera-Peña Bahamontes03:48:40  +  00:01:56=34,504 
13 BELEduard JanssensITAMolteni03:48:40  +  00:01:56=34,504 
14 ESPFrancisco GaldosESPKas-Kaskol03:49:49  +  00:03:05=34,332 
15 ESPAndré RomeroFRAJobo-Lejeune03:49:49  +  00:03:05=34,332 
16 BELRonald De WitteBELCarpenter Confortluxe-Flandria03:49:52  +  00:03:08=34,324 
17 FRAJean-Pierre DanguillaumeFRAPeugeot-BP-Michelin03:49:52  +  00:03:08=34,324 
18 ESPMiguel LasaESPKas-Kaskol03:49:52  +  00:03:08=34,324 
19 ITAGiancarlo BelliniITABrooklyn03:49:52  +  00:03:08=34,324 
20 BELAndré DierickxFRAMerlin Plage-Flandria03:49:56  +  00:03:12=34,314 
21 ESPJuan ZuranoESPLa Casera-Peña Bahamontes03:49:56  +  00:03:12=34,314 
22 FRAChristian BlainFRAJobo-Lejeune03:49:56  +  00:03:12=34,314 
23 ITAArturo PecchielanITABrooklyn03:49:56  +  00:03:12=34,314 
24 ESPJosé PesarrodonaESPKas-Kaskol03:49:56  +  00:03:12=34,314 
25 FRABernard LabourdetteFRABic03:49:56  +  00:03:12=34,314 
26 ESPLuis ZuberoESPKas-Kaskol03:49:56  +  00:03:12=34,314 
27 BELJoseph BruyereITAMolteni03:50:27  +  00:03:43=34,237 
28 BELLucien Van ImpeFRASonolor-Gitanes03:50:27  +  00:03:43=34,237 
29 FRARaymond DelisleFRAPeugeot-BP-Michelin03:50:27  +  00:03:43=34,237 
30 BELJos De SchoenmaeckerITAMolteni03:50:27  +  00:03:43=34,237 
31 BELHerman Van SpringelBELMic-De Gribaldy-Ludo03:50:27  +  00:03:43=34,237 
32 FRARégis OvionFRAPeugeot-BP-Michelin03:51:26  +  00:04:42=34,092 
33 FRARoger PingeonFRAJobo-Lejeune03:51:53  +  00:05:09=34,026 
34 FRAJosé CatieauFRABic03:51:59  +  00:05:15=34,011 
35 ESPDamaso TorresESPLa Casera-Peña Bahamontes03:51:59  +  00:05:15=34,011 
36 FRAFerdinand JulienFRASonolor-Gitanes03:51:59  +  00:05:15=34,011 
37 BELWilfried WesemaelBELMic-De Gribaldy-Ludo03:51:59  +  00:05:15=34,011 
38 FRADaniel DucreuxFRAJobo-Lejeune03:52:29  +  00:05:45=33,938 
39 NEDFedor Iwan Den HertogNLDFrisol-Flair Plastics03:52:29  +  00:05:45=33,938 
40 BELNoël VancloosterBELMic-De Gribaldy-Ludo03:53:09  +  00:06:25=33,841 
41 ITAAttilio RotaITABrooklyn03:53:09  +  00:06:25=33,841 
42 BELVictor Van SchilITAMolteni03:53:09  +  00:06:25=33,841 
43 FRAAlain NoguesFRASonolor-Gitanes03:53:09  +  00:06:25=33,841 
44 FRAJoël MillardFRAMerlin Plage-Flandria03:53:09  +  00:06:25=33,841 
45 FRAGerard MoneyronFRAMerlin Plage-Flandria03:53:09  +  00:06:25=33,841 
46 ENGMichael WrightFRASonolor-Gitanes03:53:09  +  00:06:25=33,841 
47 ENGBarry HobanFRAGan-Mercier-Hutchinson03:54:10  +  00:07:26=33,694 
48 BELWilly TeirlinckFRASonolor-Gitanes03:54:10  +  00:07:26=33,694 
49 FRAGuy SibilleFRAPeugeot-BP-Michelin03:54:10  +  00:07:26=33,694 
50 ESPFelix GonzalezESPLa Casera-Peña Bahamontes03:54:10  +  00:07:26=33,694 
51 BELGeorges PintensBELMic-De Gribaldy-Ludo03:54:10  +  00:07:26=33,694 
52 FRABernard BourreauFRAPeugeot-BP-Michelin03:54:10  +  00:07:26=33,694 
53 NEDWim PrinsenNLDFrisol-Flair Plastics03:54:10  +  00:07:26=33,694 
54 FRARoland BerlandFRABic03:54:10  +  00:07:26=33,694 
55 FRABernard CroyetFRABic03:54:10  +  00:07:26=33,694 
56 NEDGerben KarstensFRABic03:54:10  +  00:07:26=33,694 
57 FRAFrancis CampanerFRAJobo-Lejeune03:54:36  +  00:07:52=33,632 
58 FRAJean-Pierre GuillemotFRAJobo-Lejeune03:54:36  +  00:07:52=33,632 
59 BELJoseph SpruytITAMolteni03:54:36  +  00:07:52=33,632 
60 BELLudo DelcroixITAMolteni03:54:36  +  00:07:52=33,632 
61 BELDirk BaertBELMic-De Gribaldy-Ludo03:54:36  +  00:07:52=33,632 
62 ESPCarlos MeleroESPKas-Kaskol03:54:36  +  00:07:52=33,632 
63 FRADaniel RebillardFRAMerlin Plage-Flandria03:54:36  +  00:07:52=33,632 
64 ESPJosé AbilleiraESPLa Casera-Peña Bahamontes03:54:36  +  00:07:52=33,632 
65 PORHerculano FerreiraBELMic-De Gribaldy-Ludo03:54:36  +  00:07:52=33,632 
66 ESPDomingo PerurenaESPKas-Kaskol03:54:36  +  00:07:52=33,632 
67 FRAJacques BotherelFRASonolor-Gitanes03:54:36  +  00:07:52=33,632 
68 COLAntonio MartosESPKas-Kaskol03:54:36  +  00:07:52=33,632 
69 FRAJacques EsclassanFRAPeugeot-BP-Michelin03:54:36  +  00:07:52=33,632 
70 FRABernard ThevenetFRAPeugeot-BP-Michelin03:54:36  +  00:07:52=33,632 
71 FRASylvain VasseurFRABic03:54:36  +  00:07:52=33,632 
72 NEDHenk PrinsenNLDFrisol-Flair Plastics03:55:47  +  00:09:03=33,463 
73 DENLeif MortensenFRABic03:55:47  +  00:09:03=33,463 
74 FRAJean-Luc MolinerisFRABic03:56:06  +  00:09:22=33,418 
75 NEDGerard VianenFRAGan-Mercier-Hutchinson03:56:06  +  00:09:22=33,418 
76 FRARaymond RiotteFRAPeugeot-BP-Michelin03:56:06  +  00:09:22=33,418 
77 ESPJesus EsperanzaESPLa Casera-Peña Bahamontes03:56:06  +  00:09:22=33,418 
78 FRAChristian RaymondFRAGan-Mercier-Hutchinson03:56:06  +  00:09:22=33,418 
79 ESPFernando PlazaESPLa Casera-Peña Bahamontes03:56:06  +  00:09:22=33,418 
80 FRAAlain CiganaFRAJobo-Lejeune03:56:06  +  00:09:22=33,418 
81 BELJan Van De WieleBELMic-De Gribaldy-Ludo03:56:06  +  00:09:22=33,418 
82 FRACyrille GuimardFRAMerlin Plage-Flandria03:56:06  +  00:09:22=33,418 
83 ESPJesus ManzanequeESPLa Casera-Peña Bahamontes03:56:06  +  00:09:22=33,418 
84 ESPAntonio MenendezESPKas-Kaskol03:56:06  +  00:09:22=33,418 
85 FRACharly RouxelFRAPeugeot-BP-Michelin03:56:06  +  00:09:22=33,418 
86 BELMarc DemeyerBELCarpenter Confortluxe-Flandria03:56:06  +  00:09:22=33,418 
87 FRAJean-Jacques SanquerFRAMerlin Plage-Flandria03:56:06  +  00:09:22=33,418 
88 FRAJean-Pierre GenetFRAGan-Mercier-Hutchinson03:56:06  +  00:09:22=33,418 
89 NEDCees BalFRAGan-Mercier-Hutchinson03:56:58  +  00:10:14=33,296 
90 FRAJacky MouriouxFRAGan-Mercier-Hutchinson03:57:36  +  00:10:52=33,207 
91 ESPAntonio Vallori MateuESPLa Casera-Peña Bahamontes03:57:36  +  00:10:52=33,207 
92 BELFrans MintjensITAMolteni03:57:36  +  00:10:52=33,207 
93 BELGustaaf Van RoosbroeckBELMic-De Gribaldy-Ludo03:57:36  +  00:10:52=33,207 
94 BELMarc LievensITAMolteni03:57:36  +  00:10:52=33,207 
95 FRAClaude MagniFRAJobo-Lejeune03:57:36  +  00:10:52=33,207 
96 FRAAndré MolletFRAPeugeot-BP-Michelin03:57:36  +  00:10:52=33,207 
97 BELWilly Van NesteFRASonolor-Gitanes03:58:23  +  00:11:39=33,098 
98 FRAJean-Claude MisacFRAMerlin Plage-Flandria03:58:23  +  00:11:39=33,098 
99 BELJoseph HuysmansITAMolteni03:58:23  +  00:11:39=33,098 
100 BELArthur Van de VyverBELCarpenter Confortluxe-Flandria03:58:23  +  00:11:39=33,098 
101 FRARobert MintkiewiczFRASonolor-Gitanes03:58:23  +  00:11:39=33,098 
102 ITAAldo ParecchiniITABrooklyn04:00:07  +  00:13:23=32,859 
103 BELRonny VanmarckeBELMic-De Gribaldy-Ludo04:00:07  +  00:13:23=32,859 
104 ITAValerio LualdiITABrooklyn04:00:07  +  00:13:23=32,859 
105 ITAGianni Di LorenzoITABrooklyn04:00:07  +  00:13:23=32,859 
106 FRAMichel CorollerFRAMerlin Plage-Flandria04:00:07  +  00:13:23=32,859 
107 BELPatrick SercuITABrooklyn04:00:07  +  00:13:23=32,859 
108 NEDGerrie KnetemannFRAGan-Mercier-Hutchinson04:00:07  +  00:13:23=32,859 
109 BELEric LemanBELMic-De Gribaldy-Ludo04:00:07  +  00:13:23=32,859 
110 FRARegis DelepineFRAMerlin Plage-Flandria04:00:07  +  00:13:23=32,859 
111 FRAJean-Claude BlocherFRAJobo-Lejeune04:00:07  +  00:13:23=32,859 
112 FRAAlain VasseurFRABic04:00:07  +  00:13:23=32,859 
113 BELEddy CaelBELCarpenter Confortluxe-Flandria04:02:14  +  00:15:30=32,572 
114 BELDaniel VerplanckeBELCarpenter Confortluxe-Flandria04:02:14  +  00:15:30=32,572 
115 BELFrans Van LooyBELCarpenter Confortluxe-Flandria04:02:14  +  00:15:30=32,572 
116 BELRoger VerschaeveBELCarpenter Confortluxe-Flandria04:02:14  +  00:15:30=32,572 
117 ITALorenzo AlaimoNLDFrisol-Flair Plastics04:02:14  +  00:15:30=32,572 
118 BELWilfried DavidBELCarpenter Confortluxe-Flandria04:02:14  +  00:15:30=32,572 
119 NEDPiet Van KatwijkNLDFrisol-Flair Plastics04:04:14  +  00:17:30=32,305 
120 NEDHenk PoppeNLDFrisol-Flair Plastics04:04:14  +  00:17:30=32,305 
121 AUSDonald AllanNLDFrisol-Flair Plastics04:04:14  +  00:17:30=32,305 
122 FRABernard MassonFRAJobo-Lejeune04:05:24  +  00:18:40=32,152 

Withdrawls: 1
 
Rider
Team
Reason
90  BELGhislain Van LandeghemFRAMerlin Plage-FlandriaDid not finish

Todays birthdays.

1877  Antoine Perrichon
1878  Auguste Berthault
1911  Théo Herckenrath
1924  Carlo Lafranchi
1931  Armand Di Caro
1937  Jean-Claude Lebaube
1951  Giovanni Battaglin
1961  Pascal Jules
1962  Jean-Claude Leclercq
1976  Janek Tombak
1978  Francisco Pérez
1983  Dries Devenyns




Visits: